This is the latest recevied weather packets stored in our database for station/object N8BAP. If no packets are shown the sender has not sent any weather packets the latest 10 day(s).
| Time | Temp. | Humidity | Pressure | Rain* | Wind** | Luminosity | Snow |
|---|---|---|---|---|---|---|---|
| 1788002727 | 15° C | 98% | 1027.3 hPa | 0 mm | - | 34 W/m² | - |
| 1788002423 | 14.44° C | 98% | 1027.1 hPa | 0 mm | - | 31 W/m² | - |
| 1788002117 | 14.44° C | 98% | 1027.2 hPa | 0 mm | - | 12 W/m² | - |
| 1788001812 | 14.44° C | 98% | 1027.3 hPa | 0 mm | - | 6 W/m² | - |
| 1788001507 | 14.44° C | 98% | 1027.5 hPa | 0 mm | - | 3 W/m² | - |
| 1788001202 | 14.44° C | 98% | 1027.3 hPa | 0 mm | - | 1 W/m² | - |
| 1788000897 | 14.44° C | 98% | 1027 hPa | 0 mm | - | 0 W/m² | - |
| 1788000592 | 13.89° C | 98% | 1027.2 hPa | 0 mm | - | 0 W/m² | - |
| 1788000292 | 13.89° C | 98% | 1027.2 hPa | 0 mm | - | 0 W/m² | - |
| 1787999987 | 13.89° C | 98% | 1027 hPa | 0 mm | - | 0 W/m² | - |
| 1787999683 | 13.89° C | 97% | 1027.2 hPa | 0 mm | - | 0 W/m² | - |
| 1787999380 | 13.89° C | 97% | 1026.9 hPa | 0 mm | - | 0 W/m² | - |
| 1787999079 | 13.89° C | 97% | 1027.1 hPa | 0 mm | - | 0 W/m² | - |
| 1787998769 | 14.44° C | 97% | 1027 hPa | 0 mm | - | 0 W/m² | - |
| 1787998467 | 14.44° C | 97% | 1027.1 hPa | 0 mm | - | 0 W/m² | - |
| 1787998161 | 14.44° C | 97% | 1027.2 hPa | 0 mm | - | 0 W/m² | - |
| 1787997855 | 14.44° C | 97% | 1027.3 hPa | 0 mm | - | 0 W/m² | - |
| 1787997554 | 15° C | 97% | 1027.3 hPa | 0 mm | - | 0 W/m² | - |
| 1787997253 | 15° C | 97% | 1027 hPa | 0 mm | - | 0 W/m² | - |
| 1787996948 | 14.44° C | 97% | 1027 hPa | 0 mm | - | 0 W/m² | - |
| 1787996643 | 14.44° C | 97% | 1027.2 hPa | 0 mm | - | 0 W/m² | - |
| 1787996339 | 14.44° C | 97% | 1027.1 hPa | 0 mm | - | 0 W/m² | - |
| 1787996038 | 14.44° C | 97% | 1027.2 hPa | 0 mm | - | 0 W/m² | - |
| 1787995732 | 15° C | 97% | 1027.1 hPa | 0 mm | - | 0 W/m² | - |
| 1787995428 | 15° C | 97% | 1027.2 hPa | 0 mm | - | 0 W/m² | - |
* Rain latest hour (hover to see other rain measurements)
** Current wind speed in m/s (hover to see current wind gust speed)